Change the Weather History Date:

Thursday, September 6, 2012

  Actual Average Record
Temperature  
Mean Temperature 79 °F 81 °F  
Max Temperature 87 °F 89 °F 95 °F (1944)
Min Temperature 70 °F 74 °F 68 °F (1975)
Degree Days  
Heating Degree Days 0 0  
Month to date heating degree days 0 0  
Since 1 July heating degree days 0 0  
Cooling Degree Days 14 16  
Month to date cooling degree days 86 96  
Year to date cooling degree days 2619 2394  
Growing Degree Days 28 (Base 50)    
Moisture  
Dew Point 71 °F    
Average Humidity 83    
Maximum Humidity 100    
Minimum Humidity 65    
Precipitation  
Precipitation 1.42 in 0.22 in 2.02 in (1976)
Month to date precipitation 3.69 1.40  
Year to date precipitation 35.88 36.10  
Sea Level Pressure  
Sea Level Pressure 30.02 in    
Wind  
Wind Speed 4 mph (South)    
Max Wind Speed 22 mph    
Max Gust Speed 26 mph    
Visibility 8 miles    
Events Rain , Thunderstorm    
T = Trace of Precipitation, MM = Missing Value Source: NWS Daily Summary

Daily Weather History Graph

Daily Weather History Graph

Search for Another Location

Airport or City:

Trip Planner

Search our weather history database for the weather conditions in past years. The results will help you decide how hot, cold, wet, or windy it might be!

Date:

Astronomy

Sep. 06, 2012 Rise Set
Actual Time 7:03 AM EDT 7:36 PM EDT
Civil Twilight 6:39 AM EDT 7:59 PM EDT
Nautical Twilight 6:11 AM EDT 8:27 PM EDT
Astronomical Twilight 5:43 AM EDT 8:55 PM EDT
Moon 11:21 PM EDT (9/6) 12:25 PM EDT (9/6)
Length of Visible Light 13h 20m
Length of Day
12h 33m
Waning Gibbous, 67% of the Moon is Illuminated
Sep 6
Waning Gibbous
Sep 8
Last Quarter
Sep 15
New
Sep 22
First Quarter
Sep 29
Full

Hourly Weather History & Observations

Time (EDT) Temp. Heat Index Dew Point Humidity Pressure Visibility Wind Dir Wind Speed Gust Speed Precip Events Conditions
12:53 AM 73.0 °F - 71.1 °F 93% 30.00 in 10.0 mi South 4.6 mph - N/A   Clear
1:53 AM 72.0 °F - 70.0 °F 93% 29.99 in 10.0 mi Calm Calm - N/A   Clear
2:53 AM 71.1 °F - 69.1 °F 93% 29.98 in 9.0 mi Calm Calm - N/A   Clear
3:53 AM 70.0 °F - 69.1 °F 97% 29.98 in 10.0 mi SE 3.5 mph - N/A   Clear
4:31 AM 71.6 °F - 69.8 °F 94% 29.99 in 10.0 mi Calm Calm - N/A   Partly Cloudy
4:53 AM 70.0 °F - 69.1 °F 97% 29.99 in 10.0 mi Calm Calm - N/A   Partly Cloudy
5:53 AM 72.0 °F - 69.1 °F 91% 30.00 in 10.0 mi South 3.5 mph - N/A   Clear
6:53 AM 71.1 °F - 68.0 °F 90% 30.02 in 10.0 mi SSE 3.5 mph - N/A   Clear
7:53 AM 73.0 °F - 71.1 °F 93% 30.03 in 10.0 mi Calm Calm - N/A   Clear
8:53 AM 78.1 °F - 72.0 °F 81% 30.04 in 10.0 mi South 3.5 mph - N/A   Clear
9:53 AM 82.0 °F 87.4 °F 73.0 °F 74% 30.04 in 10.0 mi SSW 3.5 mph - N/A   Clear
10:53 AM 84.9 °F 92.1 °F 73.9 °F 69% 30.04 in 10.0 mi South 10.4 mph 17.3 mph N/A   Scattered Clouds
11:53 AM 84.9 °F 90.7 °F 72.0 °F 65% 30.04 in 10.0 mi South 6.9 mph - N/A   Mostly Cloudy
12:53 PM 84.9 °F 92.1 °F 73.9 °F 69% 30.03 in 10.0 mi ESE 10.4 mph - N/A   Mostly Cloudy
1:38 PM 87.8 °F 97.6 °F 75.2 °F 66% 30.02 in 10.0 mi SE 16.1 mph - N/A Thunderstorm Mostly Cloudy
1:53 PM 82.9 °F 89.4 °F 73.9 °F 74% 30.02 in 10.0 mi SE 13.8 mph 24.2 mph N/A Thunderstorm Mostly Cloudy
2:20 PM 77.0 °F - 69.8 °F 78% 30.04 in 1.8 mi Variable 4.6 mph - 0.08 in Rain , Thunderstorm Heavy Thunderstorms and Rain
2:35 PM 73.4 °F - 69.8 °F 88% 30.04 in 0.5 mi SSE 6.9 mph - 0.49 in Rain , Thunderstorm Heavy Thunderstorms and Rain
2:53 PM 72.0 °F - 70.0 °F 93% 30.01 in 1.0 mi East 3.5 mph - 0.98 in Rain , Thunderstorm Heavy Thunderstorms and Rain
2:59 PM 73.4 °F - 69.8 °F 88% 30.02 in 3.0 mi ESE 5.8 mph - 0.04 in Rain , Thunderstorm Heavy Thunderstorms and Rain
3:24 PM 73.4 °F - 71.6 °F 94% 30.01 in 4.0 mi Calm Calm - 0.14 in Rain , Thunderstorm Thunderstorms and Rain
3:53 PM 75.0 °F - 72.0 °F 90% 29.99 in 7.0 mi SE 5.8 mph - 0.24 in Rain Light Rain
4:53 PM 81.0 °F 85.8 °F 73.0 °F 77% 29.97 in 10.0 mi SSE 8.1 mph - 0.03 in   Partly Cloudy
5:53 PM 82.0 °F 86.7 °F 72.0 °F 71% 29.99 in 10.0 mi South 6.9 mph - N/A   Mostly Cloudy
6:30 PM 75.2 °F - 69.8 °F 83% 30.03 in 10.0 mi West 11.5 mph 24.2 mph N/A Thunderstorm Overcast
6:35 PM 73.4 °F - 69.8 °F 88% 30.04 in 1.8 mi West 17.3 mph 24.2 mph 0.01 in Thunderstorm Haze
6:50 PM 73.4 °F - 69.8 °F 88% 30.04 in 2.0 mi SSE 11.5 mph - 0.16 in   Overcast
6:53 PM 73.0 °F - 70.0 °F 90% 30.04 in 3.0 mi South 6.9 mph 16.1 mph 0.17 in Rain Rain
7:25 PM 73.4 °F - 69.8 °F 88% 30.04 in 10.0 mi NW 5.8 mph - 0.00 in   Overcast
7:28 PM 73.4 °F - 69.8 °F 88% 30.04 in 10.0 mi NW 8.1 mph - 0.00 in   Overcast
7:53 PM 72.0 °F - 70.0 °F 93% 30.03 in 10.0 mi WNW 3.5 mph - 0.00 in   Mostly Cloudy
8:53 PM 72.0 °F - 70.0 °F 93% 30.00 in 10.0 mi WSW 5.8 mph - 0.00 in   Scattered Clouds
9:53 PM 73.0 °F - 69.1 °F 87% 30.01 in 10.0 mi Calm Calm - N/A   Clear
10:53 PM 72.0 °F - 69.1 °F 91% 30.00 in 10.0 mi Calm Calm - N/A   Clear
11:53 PM 71.1 °F - 69.1 °F 93% 30.00 in 10.0 mi SSW 4.6 mph - N/A   Clear